星链-5012 (STARLINK-5012 )

导读

STARLINK-5012是美国SpaceX公司星链星座的成员卫星,于2022年9月24日发射升空,属于星链互联网星座的组网卫星之一。星链星座旨在为全球提供低延迟、高速宽带互联网服务,该卫星采用平板设计,搭载氪工质霍尔推进器,具备自主避撞能力,设计寿命约5-7年,运行在近地轨道,退役后将受控离轨再入大气层焚毁。

基本信息
目录编号:
53918
目录名称:
STARLINK-5012
国际标识:
2022-119AJ
轨道中心:
EARTH
卫星名称:
星链-5012
卫星全名:
星链-5012 (STARLINK-5012 )
卫星状态:
在轨 (已飞行1442 天)
发射日期:
2022-09-24 UTC
国别 :
美国 (US)
星等 :
--
轨道信息
数据来源 国际轨道数据 AOE轨道数据
星历时间 2026-09-05T13:59:29+0800
14小时前
查看轨道信息
2026-09-03T23:00:00+0800
2天前
查看轨道信息
半长轴 6917.778km 6917.9km
偏心率 0.0001093 0.0001235
轨道倾角 53.159° 53.159°
近地点辐角 67.625° 73.666°
升交点赤经 227.378° 234.682°
平近点角 292.486° 96.850°
近地点 538.884km 538.908km
远地点 540.398km 540.618km
周期 95.435分钟 95.438分钟
每日圈数 15.088737 15.088337
详细信息
固有亮度:
5
最大亮度:
2.5
卫星平台:
Starlink v1.5
覆盖范围:
全球
运营商:
太空探索技术公司
运营商所在国:
美国
制造商(研发单位):
太空探索技术公司
制造商所在国:
美国
使用方式:
暂无
卫星简介
星链(Starlink)计划是由太空探索技术公司(SpaceX)提出的一个巨型低轨卫星互联网星座项目,计划在2019年至2024年间在太空搭建由约1.2万颗卫星组成的“星链”网络,其中1584颗将部署在地球上空550千米处的近地轨道,并从2020年开始工作。该卫星仍在工作。
2D轨道图
3D轨道图
轨道高度分析图
轨道倾角分析图
轨道综合分析图
查看轨道综合分析图